Location: Mentone
(34.5413°N, 85.5351°W)
Time: 20:49:02
(UTC-05:00)

S-56A Canister/Altair - Visible Passes

Search period start: 18 April 2014 00:00
Search period end: 28 April 2014 00:00
Orbit: 632 x 2503 km, 38.9° (Epoch: 14 April)

Date Brightness Start Highest point End Pass type
(mag) Time Alt. Az. Time Alt. Az. Time Alt. Az.
18 Apr 9.4 05:36:00 10° S 05:39:24 21° SE 05:43:19 10° E visible
19 Apr 9.5 05:04:39 10° S 05:07:27 16° SE 05:10:29 10° E visible
20 Apr 9.5 04:33:34 10° SSE 04:35:29 13° SE 04:37:27 10° ESE visible
22 Apr 7.8 05:30:07 10° SW 05:34:23 51° SSE 05:39:17 10° ENE visible
23 Apr 8.0 04:59:06 15° SW 05:02:25 42° SSE 05:06:55 10° E visible
24 Apr 8.2 04:28:39 25° SSW 04:30:27 34° SSE 04:34:36 10° E visible
25 Apr 8.3 03:58:10 29° SSE 03:58:28 29° SSE 04:02:19 10° E visible
26 Apr 9.0 03:27:39 22° ESE 03:27:39 22° ESE 03:30:04 10° E visible
26 Apr 7.2 05:25:24 10° WSW 05:29:49 78° NNW 05:34:41 10° ENE visible
27 Apr 9.7 02:57:07 13° ESE 02:57:07 13° ESE 02:57:49 10° E visible
27 Apr 7.1 04:54:34 18° WSW 04:57:48 87° NNW 05:02:26 10° ENE visible
